This demonstration page uses our WeatherBlox Daily Observations layout. Learn more.

Hourly Observations for September 6, 2018

Temp ( °F °C ) Dew Point ( °F °C ) Humidity (%) Winds ( mph kmh ) Pressure ( in mb ) Visibility ( mi km ) Precip ( " mm )
12:15 am 00:15 Cloudy 63 17.1 62 16.6 97 97 NE 8 13 30.27 1025 10 16.09344 0 0
12:35 am 00:35 Cloudy 63 17.1 62 16.6 97 97 NNE 9 15 30.27 1025 10 16.09344 0 0
12:55 am 00:55 Cloudy 63 17 62 16.7 98 98 NNE 9 15 30.27 1025 7 11.265408 0 0
1:15 am 01:15 Cloudy with Mist and Fog 63 17 63 17 100 100 NE 8 13 30.27 1025 5 8.04672 0 0
1:35 am 01:35 Cloudy with Mist and Fog 63 17 63 17 100 100 NE 7 11 30.27 1025 4 6.437376 0 0
1:55 am 01:55 Cloudy with Mist and Fog 63 17 63 17 100 100 NE 8 13 30.27 1025 4 6.437376 0 0
2:15 am 02:15 Cloudy with Mist and Fog 63 17 63 17 100 100 NNE 7 11 30.27 1025 5 8.04672 0 0
2:35 am 02:35 Cloudy with Mist and Fog 63 17 63 17 100 100 NE 7 11 30.27 1025 5 8.04672 0 0
2:55 am 02:55 Cloudy with Mist and Fog 62 16.9 62 16.9 100 100 NE 9 15 30.27 1025 4 6.437376 0 0
3:15 am 03:15 Cloudy 62 16.7 62 16.7 100 100 NE 10 17 30.27 1025 7 11.265408 0 0
3:35 am 03:35 Cloudy 62 16.7 62 16.5 99 99 NE 8 13 30.27 1025 10 16.09344 0 0
3:55 am 03:55 Cloudy 62 16.7 62 16.4 98 98 NE 9 15 30.27 1025 10 16.09344 0 0
4:15 am 04:15 Cloudy 62 16.6 61 16.1 97 97 NE 9 15 30.27 1025 10 16.09344 0 0
4:35 am 04:35 Cloudy 62 16.5 61 15.9 96 96 NNE 9 15 30.24 1024 10 16.09344 0 0
4:55 am 04:55 Cloudy 62 16.5 61 15.9 96 96 NNE 9 15 30.24 1024 10 16.09344 0 0
5:15 am 05:15 Cloudy 61 16.2 60 15.5 96 96 NNE 8 13 30.24 1024 10 16.09344 0 0
5:35 am 05:35 Cloudy 61 16 59 15.1 94 94 NNE 7 11 30.24 1024 10 16.09344 0 0
5:55 am 05:55 Mostly Cloudy 60 15.7 58 14.6 93 93 NE 6 9 30.24 1024 10 16.09344 0 0
6:15 am 06:15 Mostly Cloudy 60 15.4 57 14 91 91 NNE 9 15 30.24 1024 10 16.09344 0 0
6:35 am 06:35 Mostly Cloudy 59 15 57 13.9 93 93 NNE 8 13 30.27 1025 10 16.09344 0 0
6:55 am 06:55 Cloudy 58 14.7 57 13.9 95 95 NNE 6 9 30.3 1026 10 16.09344 0 0
7:15 am 07:15 Cloudy 58 14.6 57 13.7 94 94 NNE 7 11 30.3 1026 10 16.09344 0 0
7:35 am 07:35 Cloudy 58 14.6 57 13.7 94 94 NNE 9 15 30.3 1026 10 16.09344 0 0
7:55 am 07:55 Cloudy 58 14.7 56 13.5 93 93 NE 8 13 30.3 1026 10 16.09344 0 0
8:15 am 08:15 Cloudy 58 14.6 56 13.5 93 93 NNE 9 15 30.3 1026 10 16.09344 0 0
8:35 am 08:35 Cloudy 58 14.6 56 13.3 92 92 NE 7 11 30.3 1026 10 16.09344 0 0
8:55 am 08:55 Cloudy 59 15 57 13.7 92 92 NNE 9 15 30.3 1026 10 16.09344 0 0
9:15 am 09:15 Cloudy 60 15.5 57 14 91 91 NNE 9 15 30.33 1027 10 16.09344 0 0
9:35 am 09:35 Mostly Cloudy 61 16.1 58 14.2 89 89 NNE 9 15 30.27 1025 10 16.09344 0 0
9:55 am 09:55 Partly Cloudy 62 16.6 58 14.4 87 87 NE 9 15 30.3 1026 10 16.09344 0 0
10:15 am 10:15 Sunny 63 17.1 58 14.7 86 86 NNE 7 11 30.3 1026 10 16.09344 0 0
10:35 am 10:35 Sunny 64 17.7 59 14.8 83 83 NE 8 13 30.3 1026 10 16.09344 0 0
10:55 am 10:55 Sunny 65 18.2 57 14.1 77 77 NNE 10 17 30.3 1026 10 16.09344 0 0
11:15 am 11:15 Sunny 66 18.9 58 14.5 76 76 NE 9 15 30.3 1026 10 16.09344 0 0
11:35 am 11:35 Sunny 66 18.9 58 14.4 75 75 ENE 10 17 30.3 1026 10 16.09344 0 0
11:55 am 11:55 Sunny 67 19.2 58 14.7 75 75 NE 10 17 30.24 1024 10 16.09344 0 0
12:15 pm 12:15 Sunny 67 19.5 58 14.5 73 73 NNE 8 13 30.24 1024 10 16.09344 0 0
12:35 pm 12:35 Sunny 68 20 58 14.4 70 70 NNE 6 9 30.24 1024 10 16.09344 0 0
12:55 pm 12:55 Partly Cloudy 68 20.1 60 15.6 75 75 NE 8 13 30.24 1024 10 16.09344 0 0
1:15 pm 13:15 Partly Cloudy 68 20.2 61 15.9 76 76 NNE 7 11 30.21 1023 10 16.09344 0 0
1:35 pm 13:35 Partly Cloudy 69 20.5 61 16.2 76 76 NNE 8 13 30.21 1023 10 16.09344 0 0
1:55 pm 13:55 Mostly Cloudy 69 20.8 62 16.4 76 76 E 9 15 30.21 1023 10 16.09344 0 0
2:15 pm 14:15 Cloudy 69 20.8 61 16.1 75 75 NE 10 17 30.21 1023 10 16.09344 0 0
2:35 pm 14:35 Mostly Cloudy 70 21 61 16.3 75 75 E 13 20 30.21 1023 10 16.09344 0 0
2:55 pm 14:55 Mostly Cloudy 70 21.1 62 16.7 76 76 ENE 9 15 30.21 1023 10 16.09344 0 0
3:15 pm 15:15 Mostly Cloudy 70 21.3 61 16.2 73 73 E 7 11 30.18 1022 10 16.09344 0 0
3:35 pm 15:35 Cloudy 70 21 62 16.6 76 76 ENE 10 17 30.18 1022 10 16.09344 0 0
3:55 pm 15:55 Cloudy 69 20.8 62 16.7 77 77 ENE 7 11 30.18 1022 10 16.09344 0 0
4:15 pm 16:15 Cloudy 69 20.5 62 16.8 79 79 E 9 15 30.18 1022 10 16.09344 0 0
4:35 pm 16:35 Cloudy 68 20.1 63 17.3 84 84 E 8 13 30.18 1022 7 11.265408 0 0
4:55 pm 16:55 Cloudy with Mist and Fog 67 19.5 63 17.4 88 88 E 6 9 30.18 1022 5 8.04672 0 0
5:15 pm 17:15 Cloudy 67 19.7 64 17.5 87 87 E 7 11 30.18 1022 7 11.265408 0 0
5:35 pm 17:35 Cloudy with Light Rain 67 19.5 64 18 91 91 E 6 9 30.15 1021 3 4.828032 0 0
5:55 pm 17:55 Cloudy 66 19 65 18.2 95 95 E 6 9 30.15 1021 7 11.265408 0 0
6:15 pm 18:15 Cloudy 67 19.2 64 17.9 92 92 ENE 5 7 30.15 1021 10 16.09344 0 0
6:35 pm 18:35 Cloudy 67 19.4 64 17.8 91 91 ENE 5 7 30.15 1021 10 16.09344 0 0
6:55 pm 18:55 Cloudy 67 19.3 64 17.8 91 91 E 6 9 30.15 1021 10 16.09344 0 0
7:15 pm 19:15 Cloudy 67 19.3 63 17.4 89 89 ENE 7 11 30.15 1021 10 16.09344 0 0
7:35 pm 19:35 Cloudy 66 18.8 64 17.5 92 92 ENE 3 6 30.15 1021 10 16.09344 0 0
7:55 pm 19:55 Cloudy 66 18.8 64 17.7 93 93 Calm 30.15 1021 10 16.09344 0 0
8:15 pm 20:15 Cloudy with Mist and Fog 66 18.7 64 18 96 96 Calm 30.15 1021 2.5 4.02336 0 0
8:35 pm 20:35 Cloudy with Mist and Fog 65 18.6 64 17.9 96 96 Calm 30.15 1021 2 3.218688 0 0
8:55 pm 20:55 Cloudy 65 18.6 64 18 96 96 Calm 30.15 1021 10 16.09344 0 0
9:15 pm 21:15 Cloudy with Light Rain 65 18.6 65 18.3 98 98 Calm 30.18 1022 5 8.04672 0 0
9:35 pm 21:35 Cloudy with Heavy Rain 65 18.3 65 18.3 100 100 ENE 3 6 30.21 1023 4 6.437376 0.01 0.254
9:55 pm 21:55 Cloudy with Mist and Fog 65 18.3 65 18.3 100 100 Calm 30.21 1023 5 8.04672 0.01 0.254
10:15 pm 22:15 Cloudy with Light Rain 65 18.3 65 18.3 100 100 ESE 5 7 30.21 1023 4 6.437376 0.02 0.508
10:35 pm 22:35 Cloudy with Light Drizzle 64 18 64 18 100 100 E 7 11 30.21 1023 3 4.828032 0.03 0.762
10:55 pm 22:55 Cloudy with Drizzle 64 18 64 18 100 100 E 5 7 30.21 1023 3 4.828032 0.05 1.27
11:15 pm 23:15 Cloudy with Light Drizzle 64 17.8 64 17.8 100 100 E 5 7 30.21 1023 2.5 4.02336 0 0
11:35 pm 23:35 Cloudy with Light Drizzle 64 17.8 64 17.8 100 100 E 7 11 30.21 1023 2 3.218688 0.01 0.254
11:55 pm 23:55 Cloudy with Mist and Fog 64 18 64 18 100 100 E 6 9 30.21 1023 4 6.437376 0.01 0.254

Powered by AerisWeather